Nestor Martin

Chefscout - Guadalajara
4 Apr 2027
Sonntag
Verarbeitung

Persönlichkeit

Anpassungsfähigkeit (16) Ehrgeiz (11) Kontroverse (18) Loyalität (1) Druck (18) Professionalität (18) Fairness (10) Temperament (20)

Profil

Trainerstil Demokratisch
Lizenz Kontinentale Pro
Entschlossenheit 11
Menschenführung 15
Motivation 13
Disziplin 5
Arbeitszufriedenheit
88%
Ermüdung
0%
Rolle Chefscout
Gehalt 73.7K p/W
Vertrag 14.03.2028

Leistung

Verhalten Gut
Trainingseffektivität
38%
Spielerentwicklung
70%
Verletzungsprävention
35%
Taktische Umsetzung
25%

Letzte Ereignisse

Nahm an einer Scouting-Besprechung teil jetzt
Spieler begutachtet jetzt
Spieler begutachtet jetzt
Spieler begutachtet jetzt
Spieler begutachtet jetzt
Spieler begutachtet 7T her
Spieler begutachtet 7T her
Spieler begutachtet 7T her

Aktuell beobachtet

211
Spieler Verein Status Fähigkeit Vertrauen Beobachtet Zuletzt beobachtet Letzte Stimme
Jordan Larsson Al-Ettifaq Aktiv 132 / 135 40% 3 03.04.2027 -
Habib Diallo FC Metz Aktiv 122 / 125 40% 1 03.04.2027 -
Tomáš Chorý Slavia Prague Aktiv 145 / 144 40% 3 02.04.2027 -
Luis Palma Lech Aktiv 132 / 120 40% 1 02.04.2027 -
Luis Vázquez Birmingham Aktiv 122 / 135 40% 3 01.04.2027 -
Gonzalo Plata Dinamo Moscow Aktiv 151 / 139 40% 1 01.04.2027 -
Amir Hossein Hosseinzadeh Tractor Aktiv 142 / 124 40% 2 31.03.2027 -
Giorgos Giakoumakis Al Ain Aktiv 124 / 133 40% 1 31.03.2027 -
Abdullah Juma Al Ahli Aktiv 125 / 117 40% 2 30.03.2027 -
Mama Baldé Stade Brestois Aktiv 120 / 125 40% 2 30.03.2027 -
Simone Scuffet Pisa Aktiv 121 / 141 40% 1 30.03.2027 -
Bernardo Fontes Braga Aktiv 124 / 127 40% 1 30.03.2027 -
Luca Orellano Monterrey Aktiv 146 / 144 40% 5 28.03.2027 -
Felipe Augusto Zenit Aktiv 117 / 137 40% 1 28.03.2027 -
Rubén Duarte Pumas UNAM Aktiv 125 / 126 40% 6 27.03.2027 -
Manuel Capasso Atlas Aktiv 118 / 131 40% 2 27.03.2027 -
Luka Jović AEK Aktiv 135 / 137 40% 5 27.03.2027 -
Nathan Silva Pumas UNAM Aktiv 121 / 122 40% 2 26.03.2027 -
Federico Pereira Toluca Aktiv 135 / 148 40% 1 26.03.2027 -
Allahyar Sayyadmanesh Lech Aktiv 141 / 127 40% 2 23.03.2027 -
Wesley Saïd RC Lens Aktiv 127 / 137 40% 4 23.03.2027 -
Giovanni Simeone Torino Aktiv 144 / 149 40% 1 22.03.2027 -
Rey Manaj Sivasspor Aktiv 114 / 140 40% 2 21.03.2027 -
Erik Prekop Gornik Zabrze Aktiv 114 / 120 40% 5 20.03.2027 -
Giorgi Kvernadze Frosinone Aktiv 131 / 119 40% 2 20.03.2027 -
Khalid Yaqoob Al Shabab Aktiv 116 / 119 40% 3 19.03.2027 -
Nicolás Ibáñez Cruz Azul Aktiv 146 / 127 40% 9 18.03.2027 -
Kauã Elias Shakhtar Aktiv 147 / 156 40% 2 18.03.2027 -
Patrick Sequeira Casa Pia Aktiv 126 / 116 40% 1 18.03.2027 -
Lazar Carević Famalicao Aktiv 126 / 120 40% 1 18.03.2027 -
Milad Nekounam Rah Ahan Aktiv 145 / 109 40% 3 16.03.2027 -
Ondřej Lingr Korona Aktiv 126 / 106 40% 1 15.03.2027 -
Lewis Bate Stockport County Aktiv 114 / 120 40% 1 15.03.2027 -
Álvaro Angulo Pumas UNAM Aktiv 126 / 134 40% 1 15.03.2027 -
Víctor Guzmán Monterrey Aktiv 145 / 123 40% 3 14.03.2027 -
Saba Sazonov Juve Stabia Aktiv 136 / 131 40% 3 14.03.2027 -
Iqraam Rayners Mamelodi Sundowns Aktiv 149 / 148 40% 3 13.03.2027 -
Kaio Jorge Cruzeiro Aktiv 130 / 132 40% 1 11.03.2027 -
Soufiane Rahimi Al Ain Aktiv 130 / 136 40% 5 10.03.2027 -
Oleksii Hutsuliak Polissia Aktiv 129 / 140 40% 4 10.03.2027 -
Caio Lucas Al Ain Aktiv 123 / 109 40% 1 09.03.2027 -
Figueiredo Alverca Aktiv 125 / 117 40% 1 08.03.2027 -
Tony Springett Cheltenham Town Aktiv 114 / 110 40% 2 07.03.2027 -
César Huerta Pumas UNAM Aktiv 123 / 118 40% 1 07.03.2027 -
Chris Ramos Botafogo Aktiv 135 / 145 40% 1 05.03.2027 -
Mehdi Ghayedi Al Nasr Aktiv 112 / 129 40% 3 03.03.2027 -
Akinkunmi Amoo Ismaily Aktiv 134 / 109 40% 1 03.03.2027 -
Paul Onuachu Trabzonspor Aktiv 118 / 129 40% 1 01.03.2027 -
Ashkan Shojaei Siah Jamegan Aktiv 110 / 129 40% 5 28.02.2027 -
Diego Rossi Monterrey Aktiv 129 / 133 40% 1 28.02.2027 -
Gerardo Arteaga Monterrey Aktiv 143 / 128 40% 4 27.02.2027 -
Christian Ebere Cruz Azul Aktiv 112 / 131 40% 2 27.02.2027 -
Matthew Targett Hull City Aktiv 124 / 131 40% 3 25.02.2027 -
Willer Ditta Cruz Azul Aktiv 133 / 134 40% 2 25.02.2027 -
Mousa Meunier KV Oostende Aktiv 115 / 121 40% 4 23.02.2027 -
Ozziel Herrera Tigres Aktiv 116 / 123 40% 2 23.02.2027 -
Adonis Frías Atlas Aktiv 124 / 130 40% 4 22.02.2027 -
Clayton Olympiacos Aktiv 123 / 148 40% 1 22.02.2027 -
Kaveh Mohammadi Padideh Aktiv 128 / 142 40% 1 22.02.2027 -
Franco Romero Toluca Aktiv 114 / 132 40% 1 19.02.2027 -
Fashion Sakala Al-Fayha Aktiv 116 / 116 40% 1 19.02.2027 -
Juan Soriano Académico de Viseu Aktiv 125 / 132 40% 1 19.02.2027 -
Lorenzo Montipò Venezia Aktiv 147 / 128 40% 1 19.02.2027 -
Valentin Rosier Osasuna Aktiv 120 / 116 40% 1 16.02.2027 -
Aitor Ruibal Betis Aktiv 134 / 147 40% 1 12.02.2027 -
Patrik Wålemark Lech Aktiv 124 / 126 40% 1 11.02.2027 -
Diego Lainez Tigres Aktiv 131 / 124 40% 1 11.02.2027 -
Ammar Ramadan DAC Dunajska Streda Aktiv 113 / 126 40% 2 09.02.2027 -
Adrian Benedyczak Kasimpasa Aktiv 112 / 139 40% 1 08.02.2027 -
Julio Alonso Huesca Aktiv 128 / 118 40% 3 07.02.2027 -
Sambou Soumano FC Lorient Aktiv 123 / 124 40% 1 07.02.2027 -
Jesús Orozco Chiquete Cruz Azul Aktiv 136 / 119 40% 1 06.02.2027 -
Cristian Montero Veracruz Aktiv 122 / 120 51% 2 05.02.2027 -
Yusuke Matsuo CSKA Moscow Aktiv 111 / 142 40% 2 03.02.2027 -
Hugo Cuypers Monterrey Aktiv 115 / 140 40% 6 02.02.2027 -
Ola Solbakken FC Nordsjaelland Aktiv 146 / 120 40% 1 02.02.2027 -
Pablo Rodríguez Lech Aktiv 106 / 130 40% 1 31.01.2027 -
Nicolás Fernández Belgrano Aktiv 124 / 115 40% 1 30.01.2027 -
Marco Pineda VfB Stuttgart Aktiv 134 / 131 40% 5 28.01.2027 -
Mauro Arambarri River Plate Aktiv 170 / 170 40% 4 28.01.2027 -
Jhohan Romaña Leon Aktiv 130 / 117 40% 1 28.01.2027 -
Davide Calabria Panathinaikos Aktiv 142 / 131 40% 1 27.01.2027 -
Iván Arboleda Sarmiento Verloren 115 / 108 40% 1 26.01.2027 -
Josh Keeley Luton Town Aktiv 120 / 113 40% 1 26.01.2027 -
Bruno Amione Santos Laguna Aktiv 135 / 122 40% 1 24.01.2027 -
Ángel Correa River Plate Aktiv 149 / 148 40% 4 22.01.2027 -
Liam Varela Veracruz Aktiv 144 / 144 40% 2 21.01.2027 -
Victor Araujo Veracruz Aktiv 152 / 163 40% 3 21.01.2027 -
Everton Bala Levski Aktiv 110 / 116 40% 2 20.01.2027 -
Arthur Gomes Dinamo Moscow Aktiv 108 / 136 40% 1 20.01.2027 -
Erik Lira Cruz Azul Aktiv 149 / 126 40% 3 19.01.2027 -
Adalberto Carrasquilla Pumas UNAM Aktiv 121 / 114 40% 1 19.01.2027 -
Camilo Vargas Atlas Aktiv 141 / 123 51% 1 18.01.2027 -
Camilo Durán Bloemfontein Celtic Aktiv 103 / 112 40% 2 16.01.2027 -
Ondrej Duda Zamalek Aktiv 144 / 134 40% 1 16.01.2027 -
Fernando Beltrán Leon Aktiv 135 / 122 40% 1 16.01.2027 -
Ilias Sebaoui Sint-Truiden Aktiv 137 / 113 40% 1 16.01.2027 -
Diego Valdés Vélez Aktiv 148 / 125 40% 4 13.01.2027 -
Facundo Garcés Alavés Aktiv 135 / 123 40% 1 11.01.2027 -
Lukáš Červ Viktoria Plzen Aktiv 112 / 130 40% 1 11.01.2027 -
Facundo Torres Shakhtar Aktiv 127 / 113 40% 1 08.01.2027 -
Diego Reyes Queretaro Aktiv 108 / 133 51% 1 07.01.2027 -
Jesús Angulo Tigres Aktiv 148 / 148 40% 2 29.12.2026 -
Julian Weigl Al-Qadisiyah Abgelehnt 126 / 150 40% 1 29.12.2026 Mehr Infos nötig
Nicolás Tripichio San Lorenzo Aktiv 129 / 143 40% 2 23.12.2026 -
Omar Campos Cruz Azul Aktiv 125 / 114 40% 2 21.12.2026 -
Pablo Maffeo Olympiacos Aktiv 129 / 132 40% 2 20.12.2026 -
Kortney Hause Luton Town Aktiv 110 / 126 40% 1 18.12.2026 -
Lucas Souto Defensa y Justicia Aktiv 123 / 131 40% 2 17.12.2026 -
Iván Martín Racing Club Aktiv 155 / 148 40% 1 16.12.2026 -
Domagoj Drožđek Tractor Aktiv 109 / 131 40% 2 14.12.2026 -
Exequiel Zeballos Boca Juniors Abgelehnt 118 / 149 40% 3 14.12.2026 Ablehnen
Etiosa Ighodaro Kaizer Chiefs Abgelehnt 98 / 111 40% 1 14.12.2026 Mehr Infos nötig
Dom Ballard Leyton Orient Aktiv 127 / 136 40% 1 14.12.2026 -
Facundo Suárez Instituto Aktiv 122 / 134 40% 3 12.12.2026 -
Moussa Dembélé Al-Ettifaq Aktiv 130 / 143 40% 2 12.12.2026 -
Nicolás Cordero Aldosivi Aktiv 116 / 102 40% 3 11.12.2026 -
Itumeleng Tau Ajax Cape Town Aktiv 118 / 103 40% 1 11.12.2026 -
Pablo Ramón Racing Club Aktiv 146 / 114 40% 2 10.12.2026 -
Edwuin Cetré Estudiantes Abgelehnt 124 / 121 40% 3 10.12.2026 Ablehnen
Talisca Fenerbahce Aktiv 150 / 154 40% 3 10.12.2026 -
Afimico Pululu Al-Hazem Abgelehnt 139 / 119 40% 2 06.12.2026 Mehr Infos nötig
Evidence Makgopa Orlando Pirates Aktiv 135 / 107 40% 1 06.12.2026 -
Adrián Spörle Belgrano Aktiv 139 / 125 40% 1 06.12.2026 -
Juan Infante Atlético Tucumán Aktiv 138 / 127 40% 1 05.12.2026 -
Sergej Milinković-Savić Al-Hilal Aktiv 165 / 167 40% 1 02.12.2026 -
Salvador Reyes Leon Aktiv 111 / 133 40% 2 01.12.2026 -
Alfredo Garcia La Equidad Aktiv 130 / 131 40% 3 30.11.2026 -
Gianluca Ferrari Atlético Tucumán Aktiv 131 / 139 40% 3 29.11.2026 -
Jalil Elías Tigre Aktiv 115 / 118 40% 1 29.11.2026 -
Felipe Peña Biafore Lanús Aktiv 136 / 144 40% 1 28.11.2026 -
Aarón Quiros Vélez Aktiv 128 / 129 40% 1 28.11.2026 -
Tomás Molina Argentinos Juniors Aktiv 123 / 118 40% 1 27.11.2026 -
Damián Fernández Defensa y Justicia Aktiv 125 / 142 40% 2 25.11.2026 -
Percy Erasmus SuperSport United Aktiv 114 / 120 40% 2 24.11.2026 -
Alan Velasco Boca Juniors Aktiv 112 / 139 40% 1 24.11.2026 -
Leandro Lozano Boca Juniors Aktiv 132 / 114 40% 1 20.11.2026 -
Brayan León Mamelodi Sundowns Aktiv 132 / 117 40% 1 18.11.2026 -
Alexander Díaz Deportivo Riestra Aktiv 102 / 130 40% 1 17.11.2026 -
Ola Brynhildsen Bodo/Glimt Aktiv 148 / 115 40% 2 15.11.2026 -
Ignacio Russo Tigre Aktiv 108 / 111 40% 2 15.11.2026 -
Ayrton Costa Boca Juniors Aktiv 141 / 118 40% 2 13.11.2026 -
Sergio Quintero La Equidad Aktiv 126 / 131 40% 1 13.11.2026 -
Achraf Bencharki Al Ahly Aktiv 116 / 108 40% 2 11.11.2026 -
Leandro Paredes Boca Juniors Abgelehnt 128 / 148 40% 3 07.11.2026 Beobachten
Gabriel Neves Estudiantes Aktiv 109 / 119 40% 1 07.11.2026 -
Denis Bouanga Los Angeles Football Club Aktiv 125 / 135 40% 6 06.11.2026 -
Alejandro Piedrahita Deportivo Pereira Aktiv 138 / 126 40% 2 04.11.2026 -
Nazareno Colombo Racing Club Aktiv 108 / 112 40% 1 04.11.2026 -
Joaquín García Vélez Aktiv 109 / 132 40% 1 04.11.2026 -
Iván Villalba Independiente Rivadavia Aktiv 139 / 119 40% 2 01.11.2026 -
Sergio Garcia La Equidad Aktiv 138 / 108 40% 1 31.10.2026 -
Agustín Sández Rosario Central Aktiv 119 / 116 40% 1 30.10.2026 -
Hernán de la Fuente Instituto Aktiv 104 / 101 40% 1 28.10.2026 -
Raúl Loaiza Lanús Aktiv 133 / 109 40% 1 28.10.2026 -
Leo Ceara Kashima Antlers Aktiv 136 / 125 40% 1 25.10.2026 -
Kein Sato FC Tokyo Aktiv 149 / 131 40% 2 24.10.2026 -
Martín Ortega Newell's Old Boys Aktiv 127 / 119 40% 2 23.10.2026 -
Sebastián Villa Boca Juniors Aktiv 119 / 122 40% 1 23.10.2026 -
Franco Fagúndez Estudiantes Aktiv 114 / 115 40% 1 21.10.2026 -
César Ibáñez Huracán Aktiv 125 / 104 40% 2 20.10.2026 -
Santiago Longo Belgrano Aktiv 111 / 144 40% 1 18.10.2026 -
Álex Arce Independiente Rivadavia Aktiv 118 / 120 40% 1 16.10.2026 -
Wessam Abou Ali Columbus Crew Aktiv 118 / 140 40% 1 15.10.2026 -
Guilherme Houston Dynamo Aktiv 129 / 135 40% 1 14.10.2026 -
Joaquín Correa Estudiantes Aktiv 123 / 130 40% 1 14.10.2026 -
Ruyery Blanco Alianza Petrolera Aktiv 101 / 95 40% 2 13.10.2026 -
Facundo Miño Deportivo Riestra Aktiv 111 / 130 40% 1 12.10.2026 -
Kelvin Yeboah Minnesota United FC Aktiv 134 / 122 40% 1 10.10.2026 -
Luciano Cosentino Wanderers Aktiv 140 / 142 40% 1 07.10.2026 -
Manfred Ugalde Spartak Moscow Aktiv 132 / 116 40% 2 02.10.2026 -
Ignacio Abraham Banfield Aktiv 106 / 107 40% 1 01.10.2026 -
Ismael Díaz Leon Aktiv 111 / 130 40% 1 30.09.2026 -
Diber Cambindo Leon Aktiv 115 / 126 40% 1 30.09.2026 -
Gastón Hernández San Lorenzo Aktiv 130 / 126 40% 1 30.09.2026 -
Agustín Ruberto River Plate Aktiv 128 / 133 40% 1 28.09.2026 -
Alexis Cuello San Lorenzo Aktiv 121 / 117 40% 1 28.09.2026 -
Bruno Barticciotto Talleres Aktiv 112 / 107 40% 1 27.09.2026 -
Francisco Álvarez Argentinos Juniors Aktiv 128 / 104 40% 1 27.09.2026 -
Williams Alarcón Boca Juniors Aktiv 120 / 119 40% 1 27.09.2026 -
Favio Cabral Mitre Aktiv 100 / 135 40% 1 26.09.2026 -
Renzo Reynaga Patronato Aktiv 123 / 111 40% 1 26.09.2026 -
Liel Abada Charlotte Football Club Aktiv 144 / 123 40% 1 23.09.2026 -
Luca Langoni New England Revolution Aktiv 128 / 139 40% 1 23.09.2026 -
Leonardo Campana New England Revolution Aktiv 114 / 127 40% 1 21.09.2026 -
Cesar Corona Veracruz Aktiv 124 / 146 40% 1 21.09.2026 -
Teboho Mokoena Mamelodi Sundowns Aktiv 124 / 129 40% 1 21.09.2026 -
Lucas Arce Godoy Cruz Aktiv 141 / 107 40% 1 21.09.2026 -
Adrián Marín Orlando City Aktiv 140 / 126 40% 2 20.09.2026 -
Lucas Ocampos West Ham United Aktiv 137 / 143 40% 2 19.09.2026 -
Michy Fellaini KV Oostende Aktiv 133 / 124 40% 1 19.09.2026 -
Franco Díaz KV Oostende Aktiv 130 / 125 40% 2 16.09.2026 -
Lewis Morgan San Diego Football Club Aktiv 134 / 137 40% 1 16.09.2026 -
Sergio Barreto Pachuca Aktiv 139 / 116 40% 1 15.09.2026 -
Sergio Reguilón Inter Miami CF Aktiv 145 / 127 40% 2 14.09.2026 -
Matías Fernández Colo-Colo Aktiv 102 / 102 40% 1 14.09.2026 -
Joaquim Tigres Aktiv 122 / 127 40% 2 13.09.2026 -
Louis Munteanu DC United Aktiv 125 / 115 40% 1 12.09.2026 -
Myrto Uzuni Austin FC Aktiv 119 / 137 40% 2 09.09.2026 -
Jesús Gallardo Toluca Aktiv 145 / 124 40% 2 08.09.2026 -
Luís Esteves Atlas Aktiv 125 / 131 40% 1 08.09.2026 -
Timo Werner San Jose Earthquakes Aktiv 121 / 125 40% 1 04.09.2026 -
Andrés Cubas Vancouver Whitecaps Aktiv 129 / 127 40% 1 01.09.2026 -
Juan Escobar Melgar Aktiv 137 / 122 40% 1 31.08.2026 -
Igor Lichnovsky Colo-Colo Aktiv 111 / 105 40% 1 29.08.2026 -
Sam Surridge Nashville SC Aktiv 124 / 127 40% 1 28.08.2026 -
Josh Sargent Toronto FC Aktiv 114 / 135 40% 1 26.08.2026 -
Beñat Turrientes Real Sociedad Aktiv 130 / 150 40% 1 02.08.2026 -
José Gayà Valencia Aktiv 136 / 139 40% 1 02.08.2026 -
Carl Starfelt Celta Aktiv 131 / 136 40% 1 01.08.2026 -
Marc Aguado Elche Aktiv 126 / 133 40% 1 01.08.2026 -